When you browse on this site, cookies collect data to enhance your experience and personalize the content and advertising you see.
Visit our Privacy Policy to learn more. By continuing to use the site, you agree to this use of cookies and data.
  • In Czech Republic
  • List of Countries
  • For 7 days
  • Water Temperature
  • Satellite Maps
  • Weather Map
  • Weather Widgets
  • user-avatar
    Login

    Hourly Weather Novyy Spor

    Today, 23 May, Thursday

    Time Temperature Precipitation Wind Pressure Humidity
    00:00 +15°C° 0 mm 1 mps 743 mmHg 74%
    01:00 +15°C° 0 mm 1 mps 743 mmHg 77%
    02:00 +14°C° 0 mm 1 mps 743 mmHg 80%
    03:00 +14°C° 0 mm 1 mps 743 mmHg 80%
    04:00 +14°C° 0 mm 1 mps 743 mmHg 81%
    05:00 +14°C° 0 mm 1 mps 743 mmHg 82%
    06:00 +16°C° 0 mm 1 mps 743 mmHg 75%
    07:00 +20°C° 0 mm 1 mps 743 mmHg 67%
    08:00 +22°C° 0 mm 1 mps 743 mmHg 60%
    09:00 +23°C° 0 mm 1 mps 743 mmHg 55%
    10:00 +24°C° 0 mm 1 mps 743 mmHg 50%
    11:00 +25°C° 0 mm 2 mps 743 mmHg 44%
    12:00 +25°C° 0 mm 2 mps 743 mmHg 45%
    13:00 +25°C° 0 mm 2 mps 743 mmHg 45%
    14:00 +26°C° 0 mm 2 mps 743 mmHg 46%
    15:00 +25°C° 0 mm 2 mps 743 mmHg 48%
    16:00 +25°C° 0 mm 2 mps 743 mmHg 49%
    17:00 +25°C° 0 mm 2 mps 742 mmHg 51%
    18:00 +23°C° 0 mm 2 mps 742 mmHg 58%
    19:00 +21°C° 0 mm 2 mps 743 mmHg 64%
    20:00 +20°C° 0 mm 1 mps 743 mmHg 71%
    21:00 +19°C° 0 mm 1 mps 743 mmHg 74%
    22:00 +17°C° 0 mm 2 mps 743 mmHg 76%
    23:00 +16°C° 0 mm 2 mps 743 mmHg 79%

    Tomorrow, 24 May, Friday

    Time Temperature Precipitation Wind Pressure Humidity
    00:00 +16°C° 0 mm 2 mps 743 mmHg 82%
    01:00 +15°C° 0 mm 1 mps 743 mmHg 84%
    02:00 +15°C° 0 mm 1 mps 743 mmHg 87%
    03:00 +15°C° 0 mm 1 mps 743 mmHg 87%
    04:00 +15°C° 0 mm 1 mps 743 mmHg 87%
    05:00 +15°C° 0 mm 1 mps 743 mmHg 87%
    06:00 +18°C° 0 mm 1 mps 743 mmHg 80%
    07:00 +20°C° 0 mm 1 mps 743 mmHg 72%
    08:00 +22°C° 0 mm 1 mps 743 mmHg 65%
    09:00 +24°C° 0 mm 1 mps 743 mmHg 59%
    10:00 +25°C° 0 mm 1 mps 743 mmHg 52%
    11:00 +26°C° 0 mm 1 mps 743 mmHg 46%
    12:00 +26°C° 0 mm 1 mps 743 mmHg 47%
    13:00 +26°C° 0 mm 1 mps 743 mmHg 49%
    14:00 +26°C° 0 mm 1 mps 743 mmHg 51%
    15:00 +26°C° 0.3 mm 2 mps 742 mmHg 55%
    16:00 +25°C° 0.3 mm 2 mps 742 mmHg 58%
    17:00 +25°C° 0.3 mm 2 mps 742 mmHg 62%
    18:00 +23°C° 0.4 mm 2 mps 742 mmHg 69%
    19:00 +21°C° 0.4 mm 1 mps 742 mmHg 76%
    20:00 +20°C° 0.4 mm 1 mps 742 mmHg 82%
    21:00 +19°C° 0.3 mm 1 mps 742 mmHg 85%
    22:00 +18°C° 0.3 mm 1 mps 742 mmHg 88%
    23:00 +16°C° 0.3 mm 1 mps 742 mmHg 91%

    Day after tomorrow, 25 May, Saturday

    Time Temperature Precipitation Wind Pressure Humidity
    00:00 +16°C° 0.3 mm 1 mps 742 mmHg 92%
    01:00 +15°C° 0.3 mm 0 mps 742 mmHg 93%
    02:00 +15°C° 0.3 mm 0 mps 741 mmHg 93%
    03:00 +15°C° 0 mm 0 mps 741 mmHg 93%
    04:00 +16°C° 0 mm 1 mps 741 mmHg 94%
    05:00 +16°C° 0 mm 1 mps 741 mmHg 94%
    06:00 +18°C° 0 mm 1 mps 741 mmHg 91%
    07:00 +19°C° 0 mm 1 mps 741 mmHg 89%
    08:00 +19°C° 0 mm 1 mps 741 mmHg 87%
    09:00 +21°C° 0.9 mm 1 mps 741 mmHg 81%
    10:00 +21°C° 0.9 mm 2 mps 741 mmHg 75%
    11:00 +23°C° 0.9 mm 2 mps 741 mmHg 70%
    12:00 +23°C° 0.9 mm 2 mps 741 mmHg 73%
    13:00 +21°C° 0.9 mm 3 mps 740 mmHg 75%
    14:00 +21°C° 0.9 mm 3 mps 740 mmHg 78%
    15:00 +21°C° 0.3 mm 3 mps 740 mmHg 76%
    16:00 +21°C° 0.3 mm 3 mps 740 mmHg 74%
    17:00 +21°C° 0.3 mm 3 mps 740 mmHg 72%
    18:00 +20°C° 0 mm 3 mps 740 mmHg 75%
    19:00 +18°C° 0 mm 2 mps 740 mmHg 77%
    20:00 +17°C° 0 mm 2 mps 740 mmHg 80%
    21:00 +16°C° 0 mm 2 mps 740 mmHg 83%
    22:00 +14°C° 0 mm 3 mps 740 mmHg 85%
    23:00 +13°C° 0 mm 3 mps 741 mmHg 88%

    26 May, Sunday

    Time Temperature Precipitation Wind Pressure Humidity
    00:00 +12°C° 0 mm 3 mps 741 mmHg 90%
    01:00 +12°C° 0 mm 3 mps 741 mmHg 92%
    02:00 +11°C° 0 mm 3 mps 741 mmHg 95%
    03:00 +10°C° 0 mm 3 mps 741 mmHg 94%
    04:00 +10°C° 0 mm 2 mps 741 mmHg 93%
    05:00 +9°C° 0 mm 2 mps 742 mmHg 93%
    06:00 +12°C° 0 mm 2 mps 742 mmHg 84%
    07:00 +12°C° 0 mm 3 mps 742 mmHg 76%
    08:00 +14°C° 0 mm 4 mps 742 mmHg 68%
    09:00 +15°C° 0 mm 4 mps 742 mmHg 63%
    10:00 +18°C° 0 mm 4 mps 741 mmHg 57%
    11:00 +19°C° 0 mm 4 mps 741 mmHg 52%
    12:00 +19°C° 0 mm 5 mps 741 mmHg 51%
    13:00 +20°C° 0 mm 5 mps 740 mmHg 51%
    14:00 +20°C° 0 mm 5 mps 740 mmHg 50%
    15:00 +19°C° 0.3 mm 5 mps 740 mmHg 58%
    16:00 +17°C° 0.3 mm 6 mps 740 mmHg 66%
    17:00 +17°C° 0.3 mm 6 mps 740 mmHg 73%
    18:00 +14°C° 0.2 mm 5 mps 740 mmHg 79%
    19:00 +12°C° 0.2 mm 5 mps 740 mmHg 84%
    20:00 +10°C° 0.2 mm 4 mps 740 mmHg 90%
    21:00 +10°C° 0 mm 4 mps 740 mmHg 91%
    22:00 +8°C° 0 mm 4 mps 740 mmHg 92%
    23:00 +7°C° 0 mm 4 mps 741 mmHg 93%

    27 May, Monday

    Time Temperature Precipitation Wind Pressure Humidity
    00:00 +7°C° 0 mm 4 mps 741 mmHg 93%
    01:00 +7°C° 0 mm 4 mps 741 mmHg 92%
    02:00 +6°C° 0 mm 4 mps 741 mmHg 92%
    03:00 +6°C° 0 mm 4 mps 741 mmHg 92%
    04:00 +6°C° 0 mm 4 mps 742 mmHg 92%
    05:00 +6°C° 0 mm 4 mps 742 mmHg 92%
    06:00 +7°C° 0 mm 5 mps 743 mmHg 86%
    07:00 +8°C° 0 mm 5 mps 743 mmHg 81%
    08:00 +10°C° 0 mm 6 mps 743 mmHg 75%
    09:00 +10°C° 0 mm 6 mps 744 mmHg 72%
    10:00 +12°C° 0 mm 5 mps 744 mmHg 69%
    11:00 +12°C° 0 mm 5 mps 745 mmHg 66%
    12:00 +14°C° 0 mm 5 mps 745 mmHg 63%
    13:00 +15°C° 0 mm 5 mps 745 mmHg 60%
    14:00 +17°C° 0 mm 4 mps 745 mmHg 56%
    15:00 +17°C° 0 mm 4 mps 745 mmHg 58%
    16:00 +17°C° 0 mm 4 mps 745 mmHg 59%
    17:00 +18°C° 0 mm 4 mps 745 mmHg 60%
    18:00 +16°C° 0 mm 3 mps 746 mmHg 67%
    19:00 +15°C° 0 mm 2 mps 746 mmHg 74%
    20:00 +13°C° 0 mm 1 mps 746 mmHg 82%
    21:00 +12°C° 0 mm 2 mps 746 mmHg 85%
    22:00 +12°C° 0 mm 2 mps 746 mmHg 87%
    23:00 +10°C° 0 mm 2 mps 746 mmHg 90%

    28 May, Tuesday

    Time Temperature Precipitation Wind Pressure Humidity
    00:00 +10°C° 0 mm 2 mps 746 mmHg 91%
    01:00 +10°C° 0 mm 2 mps 746 mmHg 91%
    02:00 +10°C° 0 mm 2 mps 747 mmHg 92%
    03:00 +10°C° 0 mm 2 mps 746 mmHg 89%
    04:00 +10°C° 0 mm 3 mps 746 mmHg 86%
    05:00 +11°C° 0 mm 3 mps 746 mmHg 83%
    06:00 +13°C° 0 mm 3 mps 746 mmHg 78%
    07:00 +14°C° 0 mm 4 mps 746 mmHg 73%
    08:00 +16°C° 0 mm 5 mps 745 mmHg 68%
    09:00 +16°C° 2.1 mm 5 mps 745 mmHg 76%
    10:00 +15°C° 2.1 mm 5 mps 745 mmHg 84%
    11:00 +15°C° 2.1 mm 4 mps 744 mmHg 92%
    12:00 +15°C° 4.7 mm 5 mps 744 mmHg 93%
    13:00 +15°C° 4.7 mm 5 mps 743 mmHg 93%
    14:00 +15°C° 4.7 mm 5 mps 742 mmHg 94%
    15:00 +17°C° 0.2 mm 5 mps 742 mmHg 89%
    16:00 +20°C° 0.2 mm 5 mps 742 mmHg 83%
    17:00 +23°C° 0.2 mm 5 mps 741 mmHg 78%
    18:00 +21°C° 1.5 mm 4 mps 741 mmHg 83%
    19:00 +20°C° 1.5 mm 4 mps 741 mmHg 87%
    20:00 +18°C° 1.5 mm 3 mps 741 mmHg 92%
    21:00 +18°C° 0.1 mm 3 mps 741 mmHg 93%
    22:00 +18°C° 0.1 mm 3 mps 741 mmHg 94%
    23:00 +18°C° 0.1 mm 3 mps 741 mmHg 94%
    Show more